• In Deutschland
  • Länderverzeichnis
  • Für 7 Tage
  • Wassertemperatur
  • Satellitenkarten
  • Wetterkarte
  • Widgets
  • user-avatar
    Anmelden

    Stündliche Wetter Enkamp

    Heute, 18 Januar, Donnerstag

    Zeit Temperatur Niederschläge Wind Luftdruck Luftfeuchtigkeit
    00:00 -4°C° 0 mm 2 m/S 626 mmHg 72%
    01:00 -4°C° 0 mm 2 m/S 626 mmHg 71%
    02:00 -2°C° 0 mm 1 m/S 625 mmHg 70%
    03:00 -2°C° 0 mm 1 m/S 625 mmHg 69%
    04:00 -2°C° 0 mm 1 m/S 625 mmHg 68%
    05:00 -2°C° 0 mm 1 m/S 625 mmHg 68%
    06:00 -2°C° 0 mm 1 m/S 625 mmHg 67%
    07:00 -1°C° 0 mm 1 m/S 625 mmHg 65%
    08:00 0°C° 0 mm 1 m/S 626 mmHg 64%
    09:00 +1°C° 0 mm 1 m/S 626 mmHg 62%
    10:00 +3°C° 0 mm 1 m/S 627 mmHg 62%
    11:00 +4°C° 0 mm 1 m/S 627 mmHg 61%
    12:00 +6°C° 0 mm 1 m/S 627 mmHg 61%
    13:00 +5°C° 0 mm 1 m/S 627 mmHg 63%
    14:00 +5°C° 0 mm 1 m/S 626 mmHg 64%
    15:00 +5°C° 0 mm 1 m/S 626 mmHg 66%
    16:00 +4°C° 0 mm 1 m/S 625 mmHg 71%
    17:00 +2°C° 0 mm 1 m/S 624 mmHg 76%
    18:00 0°C° 0 mm 1 m/S 624 mmHg 82%
    19:00 0°C° 0 mm 1 m/S 624 mmHg 80%
    20:00 -2°C° 0 mm 2 m/S 624 mmHg 79%
    21:00 -2°C° 0 mm 2 m/S 624 mmHg 78%
    22:00 -2°C° 0 mm 2 m/S 624 mmHg 78%
    23:00 -2°C° 0 mm 2 m/S 623 mmHg 78%

    Morgen, 19 Januar, Freitag

    Zeit Temperatur Niederschläge Wind Luftdruck Luftfeuchtigkeit
    00:00 -2°C° 0 mm 2 m/S 623 mmHg 78%
    01:00 -2°C° 0 mm 2 m/S 623 mmHg 78%
    02:00 -2°C° 0 mm 2 m/S 623 mmHg 79%
    03:00 -2°C° 0 mm 2 m/S 623 mmHg 80%
    04:00 -2°C° 0 mm 2 m/S 623 mmHg 81%
    05:00 -2°C° 0 mm 2 m/S 622 mmHg 82%
    06:00 -2°C° 0 mm 2 m/S 622 mmHg 83%
    07:00 -1°C° 0,1 mm 2 m/S 623 mmHg 81%
    08:00 +1°C° 0,1 mm 2 m/S 623 mmHg 79%
    09:00 +1°C° 0,1 mm 2 m/S 624 mmHg 78%
    10:00 +3°C° 0 mm 2 m/S 624 mmHg 74%
    11:00 +4°C° 0 mm 2 m/S 625 mmHg 71%
    12:00 +5°C° 0 mm 2 m/S 625 mmHg 68%
    13:00 +4°C° 0 mm 2 m/S 625 mmHg 68%
    14:00 +3°C° 0 mm 3 m/S 624 mmHg 68%
    15:00 +3°C° 0 mm 3 m/S 624 mmHg 67%
    16:00 +1°C° 0 mm 3 m/S 624 mmHg 72%
    17:00 -1°C° 0 mm 3 m/S 624 mmHg 76%
    18:00 -2°C° 0 mm 2 m/S 623 mmHg 81%
    19:00 -2°C° 0 mm 2 m/S 624 mmHg 79%
    20:00 -2°C° 0 mm 2 m/S 624 mmHg 76%
    21:00 -2°C° 0 mm 2 m/S 624 mmHg 74%
    22:00 -2°C° 0 mm 2 m/S 624 mmHg 76%
    23:00 -2°C° 0 mm 2 m/S 624 mmHg 78%

    übermorgen, 20 Januar, Samstag

    Zeit Temperatur Niederschläge Wind Luftdruck Luftfeuchtigkeit
    00:00 -2°C° 0 mm 2 m/S 625 mmHg 80%
    01:00 -3°C° 0 mm 2 m/S 624 mmHg 81%
    02:00 -3°C° 0 mm 2 m/S 624 mmHg 82%
    03:00 -3°C° 0 mm 2 m/S 624 mmHg 82%
    04:00 -3°C° 0 mm 2 m/S 624 mmHg 81%
    05:00 -4°C° 0 mm 2 m/S 624 mmHg 80%
    06:00 -4°C° 0 mm 2 m/S 623 mmHg 79%
    07:00 -3°C° 0 mm 2 m/S 624 mmHg 75%
    08:00 0°C° 0 mm 1 m/S 624 mmHg 71%
    09:00 +1°C° 0 mm 1 m/S 624 mmHg 68%
    10:00 +1°C° 0,1 mm 2 m/S 624 mmHg 69%
    11:00 +2°C° 0,1 mm 2 m/S 624 mmHg 69%
    12:00 +3°C° 0,1 mm 2 m/S 624 mmHg 70%
    13:00 +2°C° 0,4 mm 3 m/S 624 mmHg 72%
    14:00 +3°C° 0,4 mm 3 m/S 623 mmHg 75%
    15:00 +3°C° 0,4 mm 3 m/S 623 mmHg 77%
    16:00 +2°C° 0,6 mm 3 m/S 623 mmHg 81%
    17:00 +1°C° 0,6 mm 4 m/S 622 mmHg 85%
    18:00 0°C° 0,6 mm 4 m/S 622 mmHg 89%
    19:00 0°C° 0,5 mm 4 m/S 623 mmHg 89%
    20:00 0°C° 0,5 mm 4 m/S 623 mmHg 90%
    21:00 0°C° 0,5 mm 4 m/S 624 mmHg 90%
    22:00 +1°C° 0,3 mm 4 m/S 624 mmHg 90%
    23:00 +2°C° 0,3 mm 3 m/S 624 mmHg 89%

    21 Januar, Sonntag

    Zeit Temperatur Niederschläge Wind Luftdruck Luftfeuchtigkeit
    00:00 +2°C° 0,3 mm 3 m/S 625 mmHg 89%
    01:00 +2°C° 0,4 mm 3 m/S 625 mmHg 89%
    02:00 +2°C° 0,4 mm 3 m/S 625 mmHg 89%
    03:00 +2°C° 0,4 mm 3 m/S 625 mmHg 89%
    04:00 +2°C° 0,4 mm 3 m/S 625 mmHg 89%
    05:00 +2°C° 0,4 mm 3 m/S 626 mmHg 89%
    06:00 +2°C° 0,4 mm 3 m/S 626 mmHg 89%
    07:00 +2°C° 0,2 mm 3 m/S 626 mmHg 87%
    08:00 +2°C° 0,2 mm 3 m/S 627 mmHg 86%
    09:00 +3°C° 0,2 mm 3 m/S 628 mmHg 85%
    10:00 +3°C° 0,1 mm 3 m/S 628 mmHg 83%
    11:00 +4°C° 0,1 mm 3 m/S 628 mmHg 81%
    12:00 +4°C° 0,1 mm 3 m/S 629 mmHg 78%
    13:00 +5°C° 0 mm 3 m/S 629 mmHg 77%
    14:00 +5°C° 0 mm 3 m/S 629 mmHg 76%
    15:00 +5°C° 0 mm 3 m/S 629 mmHg 75%
    16:00 +4°C° 0 mm 3 m/S 629 mmHg 78%
    17:00 +3°C° 0 mm 3 m/S 628 mmHg 80%
    18:00 +1°C° 0 mm 3 m/S 628 mmHg 83%
    19:00 +1°C° 0 mm 3 m/S 629 mmHg 83%
    20:00 +1°C° 0 mm 3 m/S 629 mmHg 83%
    21:00 +1°C° 0 mm 3 m/S 629 mmHg 83%
    22:00 0°C° 0 mm 3 m/S 629 mmHg 83%
    23:00 0°C° 0 mm 3 m/S 629 mmHg 83%

    22 Januar, Montag

    Zeit Temperatur Niederschläge Wind Luftdruck Luftfeuchtigkeit
    00:00 0°C° 0 mm 3 m/S 629 mmHg 83%
    01:00 0°C° 0 mm 3 m/S 629 mmHg 83%
    02:00 0°C° 0 mm 3 m/S 629 mmHg 83%
    03:00 +1°C° 0 mm 2 m/S 628 mmHg 83%
    04:00 +1°C° 0 mm 2 m/S 628 mmHg 83%
    05:00 -1°C° 0 mm 2 m/S 628 mmHg 82%
    06:00 -1°C° 0 mm 2 m/S 628 mmHg 82%
    07:00 +1°C° 0 mm 2 m/S 629 mmHg 80%
    08:00 +2°C° 0 mm 2 m/S 630 mmHg 77%
    09:00 +3°C° 0 mm 2 m/S 630 mmHg 74%
    10:00 +5°C° 0 mm 2 m/S 630 mmHg 71%
    11:00 +6°C° 0 mm 2 m/S 631 mmHg 67%
    12:00 +8°C° 0 mm 2 m/S 631 mmHg 63%
    13:00 +8°C° 0 mm 2 m/S 631 mmHg 65%
    14:00 +9°C° 0 mm 1 m/S 631 mmHg 66%
    15:00 +9°C° 0 mm 1 m/S 630 mmHg 68%
    16:00 +7°C° 0 mm 1 m/S 630 mmHg 74%
    17:00 +5°C° 0 mm 1 m/S 629 mmHg 79%
    18:00 +3°C° 0 mm 1 m/S 629 mmHg 85%
    19:00 +2°C° 0 mm 2 m/S 629 mmHg 83%
    20:00 +2°C° 0 mm 2 m/S 629 mmHg 81%
    21:00 +2°C° 0 mm 2 m/S 629 mmHg 79%
    22:00 +2°C° 0 mm 2 m/S 629 mmHg 75%
    23:00 +2°C° 0 mm 2 m/S 629 mmHg 72%

    23 Januar, Dienstag

    Zeit Temperatur Niederschläge Wind Luftdruck Luftfeuchtigkeit
    00:00 +2°C° 0 mm 2 m/S 629 mmHg 68%
    01:00 +2°C° 0 mm 2 m/S 629 mmHg 66%
    02:00 +1°C° 0 mm 2 m/S 629 mmHg 64%
    03:00 +1°C° 0 mm 2 m/S 629 mmHg 63%
    04:00 +1°C° 0 mm 2 m/S 629 mmHg 62%
    05:00 +1°C° 0 mm 2 m/S 630 mmHg 61%
    06:00 +1°C° 0 mm 2 m/S 630 mmHg 61%
    07:00 +3°C° 0 mm 1 m/S 630 mmHg 59%
    08:00 +4°C° 0 mm 1 m/S 631 mmHg 58%
    09:00 +5°C° 0 mm 1 m/S 632 mmHg 56%
    10:00 +7°C° 0 mm 1 m/S 632 mmHg 54%
    11:00 +8°C° 0 mm 1 m/S 633 mmHg 51%
    12:00 +10°C° 0 mm 1 m/S 633 mmHg 48%
    13:00 +10°C° 0 mm 1 m/S 633 mmHg 51%
    14:00 +10°C° 0 mm 1 m/S 632 mmHg 53%
    15:00 +9°C° 0 mm 1 m/S 632 mmHg 56%
    16:00 +7°C° 0 mm 1 m/S 631 mmHg 62%
    17:00 +5°C° 0 mm 1 m/S 630 mmHg 68%
    18:00 +3°C° 0 mm 1 m/S 630 mmHg 74%
    19:00 +3°C° 0 mm 1 m/S 630 mmHg 72%
    20:00 +3°C° 0 mm 1 m/S 630 mmHg 71%
    21:00 +3°C° 0 mm 1 m/S 630 mmHg 69%
    22:00 +3°C° 0 mm 1 m/S 629 mmHg 67%
    23:00 +3°C° 0 mm 1 m/S 629 mmHg 65%
    Mehr zeigen